IBE250 SEQM-LPPT

Flight info

Callsign IBE250
Flight time N/A
Altitude 35000
Route ARNO3A ARNOK UP533 CITRS 2154N 2550N 2845N 3139N 3434N GINSU H105 VSM H102 BEKUN GUNTI UZ21 NEGRI LAZET LAZE2A
Aircraft A346/H-VGDW/C

Departure

Time 2026-05-07 13:21
Airport Mariscal Sucre International Airport (SEQM)

Arrival

Time N/A
Airport Lisbon Humberto Delgado Airport (LPPT)
Time Latitude Longitude Altitude Speed Heading
2026-05-07 12:58 -0.12505 -78.35787 7851 ft 0 kts 86°
2026-05-07 13:07 -0.12505 -78.35788 7851 ft 0 kts 86°
2026-05-07 13:07 -0.12507 -78.35811 7843 ft 0 kts 86°
2026-05-07 13:07 -0.12508 -78.35837 7841 ft 0 kts 87°
2026-05-07 13:07 -0.12504 -78.35855 7839 ft 0 kts 123°
2026-05-07 13:08 -0.12489 -78.35865 7848 ft 0 kts 163°
2026-05-07 13:08 -0.12475 -78.35867 7848 ft 0 kts 183°
2026-05-07 13:11 -0.12476 -78.35867 7850 ft 0 kts 183°
2026-05-07 13:11 -0.12482 -78.35867 7850 ft 1 kts 183°
2026-05-07 13:11 -0.12495 -78.35868 7850 ft 3 kts 183°
2026-05-07 13:11 -0.12518 -78.35869 7839 ft 4 kts 183°
2026-05-07 13:12 -0.12547 -78.35870 7840 ft 3 kts 173°
2026-05-07 13:12 -0.12575 -78.35861 7843 ft 5 kts 161°
2026-05-07 13:12 -0.12606 -78.35850 7844 ft 5 kts 161°
2026-05-07 13:12 -0.12637 -78.35840 7847 ft 5 kts 161°
2026-05-07 13:13 -0.12664 -78.35828 7844 ft 4 kts 144°
2026-05-07 13:13 -0.12680 -78.35809 7845 ft 4 kts 121°
2026-05-07 13:13 -0.12692 -78.35769 7853 ft 7 kts 97°
2026-05-07 13:13 -0.12693 -78.35716 7855 ft 10 kts 89°
2026-05-07 13:14 -0.12690 -78.35671 7861 ft 6 kts 88°
2026-05-07 13:14 -0.12701 -78.35621 7868 ft 8 kts 129°
2026-05-07 13:14 -0.12750 -78.35600 7872 ft 9 kts 173°
2026-05-07 13:14 -0.12849 -78.35595 7875 ft 17 kts 177°
2026-05-07 13:15 -0.12959 -78.35590 7879 ft 14 kts 178°
2026-05-07 13:15 -0.13045 -78.35586 7883 ft 10 kts 178°
2026-05-07 13:15 -0.13122 -78.35583 7887 ft 12 kts 178°
2026-05-07 13:15 -0.13193 -78.35580 7890 ft 9 kts 178°
2026-05-07 13:16 -0.13248 -78.35578 7892 ft 8 kts 178°
2026-05-07 13:16 -0.13305 -78.35575 7893 ft 12 kts 178°
2026-05-07 13:16 -0.13402 -78.35572 7894 ft 15 kts 178°
2026-05-07 13:16 -0.13507 -78.35568 7896 ft 14 kts 178°
2026-05-07 13:17 -0.13595 -78.35564 7900 ft 11 kts 178°
2026-05-07 13:17 -0.13670 -78.35562 7902 ft 13 kts 178°
2026-05-07 13:17 -0.13763 -78.35558 7908 ft 13 kts 178°
2026-05-07 13:17 -0.13846 -78.35555 7916 ft 12 kts 178°
2026-05-07 13:18 -0.13924 -78.35551 7907 ft 10 kts 176°
2026-05-07 13:18 -0.13995 -78.35547 7905 ft 10 kts 177°
2026-05-07 13:18 -0.14068 -78.35543 7921 ft 10 kts 177°
2026-05-07 13:18 -0.14123 -78.35541 7924 ft 7 kts 178°
2026-05-07 13:19 -0.14197 -78.35533 7926 ft 11 kts 165°
2026-05-07 13:19 -0.14245 -78.35491 7929 ft 9 kts 109°
2026-05-07 13:19 -0.14252 -78.35429 7923 ft 10 kts 90°
2026-05-07 13:19 -0.14234 -78.35375 7927 ft 8 kts 18°
2026-05-07 13:20 -0.14193 -78.35370 7925 ft 9 kts 359°
2026-05-07 13:20 -0.14183 -78.35370 7925 ft 0 kts 357°
2026-05-07 13:20 -0.14078 -78.35374 7920 ft 47 kts 358°
2026-05-07 13:20 -0.13505 -78.35399 7898 ft 116 kts 358°
2026-05-07 13:21 -0.12877 -78.35425 7879 ft 156 kts 358°
2026-05-07 13:21 -0.11606 -78.35479 7837 ft 207 kts 357°
2026-05-07 13:21 -0.10100 -78.35534 8267 ft 222 kts 358°
2026-05-07 13:21 -0.08538 -78.35605 9012 ft 227 kts 358°
2026-05-07 13:22 -0.06961 -78.35815 9775 ft 231 kts 347°
2026-05-07 13:22 -0.05424 -78.36311 10559 ft 233 kts 343°
2026-05-07 13:22 -0.03894 -78.36862 11278 ft 234 kts 342°
2026-05-07 13:22 -0.02356 -78.37430 11966 ft 236 kts 341°
2026-05-07 13:23 -0.00838 -78.37994 12594 ft 232 kts 342°
2026-05-07 13:23 0.00687 -78.38562 13031 ft 236 kts 343°
2026-05-07 13:23 0.02240 -78.39123 13569 ft 239 kts 343°
2026-05-07 13:23 0.03819 -78.39669 14087 ft 240 kts 343°
2026-05-07 13:24 0.05423 -78.40230 14400 ft 249 kts 344°
2026-05-07 13:24 0.07090 -78.40810 14579 ft 258 kts 344°
2026-05-07 13:24 0.08818 -78.41410 14743 ft 268 kts 343°
2026-05-07 13:24 0.10607 -78.42035 14907 ft 277 kts 343°
2026-05-07 13:25 0.12463 -78.42683 15093 ft 288 kts 345°
2026-05-07 13:25 0.14453 -78.42998 15230 ft 293 kts 11°
2026-05-07 13:25 0.16365 -78.42336 15383 ft 295 kts 39°
2026-05-07 13:25 0.17894 -78.40979 15588 ft 302 kts 46°
2026-05-07 13:26 0.19444 -78.39499 15844 ft 313 kts 45°
2026-05-07 13:26 0.21060 -78.37975 16027 ft 325 kts 45°
2026-05-07 13:26 0.22737 -78.36405 16242 ft 336 kts 45°
2026-05-07 13:26 0.24478 -78.34779 16455 ft 348 kts 44°
2026-05-07 13:27 0.26280 -78.33102 16639 ft 359 kts 44°
2026-05-07 13:27 0.28134 -78.31375 16846 ft 370 kts 44°
2026-05-07 13:27 0.30048 -78.29595 17006 ft 380 kts 44°
2026-05-07 13:27 0.32012 -78.27766 17188 ft 391 kts 44°
2026-05-07 13:28 0.34027 -78.25891 17377 ft 400 kts 44°
2026-05-07 13:28 0.36092 -78.23969 17590 ft 410 kts 44°
2026-05-07 13:28 0.38196 -78.22016 17898 ft 414 kts 45°
2026-05-07 13:28 0.40308 -78.20052 18418 ft 414 kts 44°
2026-05-07 13:29 0.42422 -78.18083 18820 ft 416 kts 45°
2026-05-07 13:29 0.44512 -78.16135 19216 ft 417 kts 44°
2026-05-07 13:29 0.46639 -78.14155 19506 ft 419 kts 45°
2026-05-07 13:29 0.48791 -78.12174 19879 ft 421 kts 42°
2026-05-07 13:30 0.51049 -78.10289 20224 ft 425 kts 40°
2026-05-07 13:30 0.53415 -78.08500 20593 ft 426 kts 38°
2026-05-07 13:30 0.55793 -78.06730 20934 ft 429 kts 39°
2026-05-07 13:30 0.58194 -78.04945 21303 ft 430 kts 38°
2026-05-07 13:31 0.60605 -78.03153 21594 ft 433 kts 39°
2026-05-07 13:31 0.63027 -78.01349 21989 ft 434 kts 38°
2026-05-07 13:31 0.65457 -77.99541 22279 ft 437 kts 38°
2026-05-07 13:31 0.67903 -77.97718 22566 ft 440 kts 38°
2026-05-07 13:32 0.70363 -77.95890 22883 ft 442 kts 38°
2026-05-07 13:32 0.72832 -77.94051 23224 ft 444 kts 38°
2026-05-07 13:32 0.75321 -77.92199 23450 ft 447 kts 38°
2026-05-07 13:32 0.77818 -77.90336 23790 ft 448 kts 39°
2026-05-07 13:33 0.80276 -77.88422 24064 ft 448 kts 41°
2026-05-07 13:33 0.82641 -77.86377 24285 ft 450 kts 44°
2026-05-07 13:33 0.84898 -77.84269 24539 ft 450 kts 45°
2026-05-07 13:33 0.87179 -77.82114 24804 ft 452 kts 45°
2026-05-07 13:34 0.89500 -77.79919 25292 ft 453 kts 45°
2026-05-07 13:34 0.94077 -77.75589 25663 ft 458 kts 45°
2026-05-07 13:34 0.96399 -77.73393 25883 ft 460 kts 46°
2026-05-07 13:35 0.98728 -77.71192 26130 ft 461 kts 45°
2026-05-07 13:35 1.01064 -77.68985 26337 ft 463 kts 45°
2026-05-07 13:35 1.03407 -77.66764 26556 ft 465 kts 45°
2026-05-07 13:35 1.05773 -77.64527 26700 ft 468 kts 45°
2026-05-07 13:36 1.08150 -77.62279 26870 ft 471 kts 45°
2026-05-07 13:36 1.10535 -77.60028 27065 ft 472 kts 45°
2026-05-07 13:36 1.12925 -77.57767 27265 ft 474 kts 44°
2026-05-07 13:36 1.15332 -77.55491 27348 ft 478 kts 44°
2026-05-07 13:37 1.17759 -77.53200 27477 ft 481 kts 44°
2026-05-07 13:37 1.20198 -77.50899 27660 ft 482 kts 44°
2026-05-07 13:37 1.22640 -77.48594 27881 ft 484 kts 44°
2026-05-07 13:37 1.25090 -77.46279 28108 ft 485 kts 44°
2026-05-07 13:38 1.27513 -77.43989 28404 ft 485 kts 44°
2026-05-07 13:38 1.29973 -77.41663 28755 ft 484 kts 44°
2026-05-07 13:38 1.32421 -77.39350 29099 ft 483 kts 44°
2026-05-07 13:38 1.34863 -77.37040 29409 ft 483 kts 44°
2026-05-07 13:39 1.37316 -77.34720 29697 ft 483 kts 44°
2026-05-07 13:39 1.39756 -77.32410 29977 ft 483 kts 44°
2026-05-07 13:39 1.42197 -77.30099 30120 ft 482 kts 45°
2026-05-07 13:39 1.44606 -77.27820 30384 ft 482 kts 45°
2026-05-07 13:40 1.47042 -77.25511 30625 ft 482 kts 44°
2026-05-07 13:40 1.49479 -77.23204 30816 ft 482 kts 44°
2026-05-07 13:40 1.51915 -77.20897 31112 ft 481 kts 45°
2026-05-07 13:40 1.54344 -77.18600 31366 ft 481 kts 44°
2026-05-07 13:41 1.56781 -77.16296 31576 ft 482 kts 44°
2026-05-07 13:41 1.59225 -77.13982 31797 ft 482 kts 44°
2026-05-07 13:41 1.61664 -77.11676 32024 ft 482 kts 44°
2026-05-07 13:41 1.64105 -77.09368 32215 ft 483 kts 44°
2026-05-07 13:42 1.66549 -77.07058 32492 ft 483 kts 44°
2026-05-07 13:42 1.68993 -77.04747 32706 ft 483 kts 44°
2026-05-07 13:42 1.71439 -77.02433 32919 ft 483 kts 44°
2026-05-07 13:42 1.73884 -77.00119 33142 ft 484 kts 44°
2026-05-07 13:43 1.76328 -76.97806 33355 ft 484 kts 44°
2026-05-07 13:43 1.78753 -76.95513 33512 ft 486 kts 44°
2026-05-07 13:43 1.81212 -76.93185 33717 ft 487 kts 44°
2026-05-07 13:43 1.83676 -76.90855 33887 ft 489 kts 44°
2026-05-07 13:44 1.86146 -76.88517 34068 ft 490 kts 44°
2026-05-07 13:44 1.88630 -76.86161 34237 ft 490 kts 43°
2026-05-07 13:44 1.91109 -76.83816 34425 ft 491 kts 43°
2026-05-07 13:44 1.93590 -76.81469 34568 ft 491 kts 43°
2026-05-07 13:45 1.96076 -76.79118 34788 ft 492 kts 43°
2026-05-07 13:45 1.98564 -76.76765 34967 ft 492 kts 43°
2026-05-07 13:45 2.01051 -76.74411 35113 ft 493 kts 43°
2026-05-07 13:46 2.06051 -76.69680 35135 ft 494 kts 43°
2026-05-07 13:46 17.95089 -59.05977 35117 ft 494 kts 40°
2026-05-07 13:46 17.97225 -59.03403 34228 ft 485 kts 48°
2026-05-07 13:47 17.99353 -59.00673 34699 ft 481 kts 51°
2026-05-07 13:47 18.01354 -58.97847 34933 ft 484 kts 54°
2026-05-07 13:47 18.03225 -58.94934 35057 ft 489 kts 56°
2026-05-07 13:47 18.05103 -58.91924 35194 ft 494 kts 56°
2026-05-07 13:48 18.07015 -58.88840 35317 ft 499 kts 56°
2026-05-07 13:48 18.08899 -58.85803 35426 ft 504 kts 56°
2026-05-07 13:48 18.10830 -58.82694 35536 ft 509 kts 56°
2026-05-07 13:48 18.12781 -58.79554 35646 ft 514 kts 56°
2026-05-07 13:49 18.14757 -58.76380 35787 ft 514 kts 56°
2026-05-07 13:49 18.16713 -58.73234 36069 ft 512 kts 56°
2026-05-07 13:49 18.18653 -58.70110 36567 ft 506 kts 56°
2026-05-07 13:49 18.20575 -58.67015 36940 ft 505 kts 56°
2026-05-07 13:50 18.22507 -58.63906 37093 ft 507 kts 56°
2026-05-07 13:50 18.26438 -58.57576 37121 ft 517 kts 56°
2026-05-07 13:51 18.30360 -58.51252 37109 ft 515 kts 56°
2026-05-07 13:51 18.34297 -58.44900 37098 ft 518 kts 56°
2026-05-07 13:52 18.38258 -58.38502 37106 ft 520 kts 56°
2026-05-07 13:52 18.42238 -58.32063 37108 ft 520 kts 56°
2026-05-07 13:52 36.28451 -27.67332 37104 ft 479 kts 67°
2026-05-07 13:53 36.29622 -27.63446 37275 ft 488 kts 63°
2026-05-07 13:53 36.30732 -27.59412 37139 ft 498 kts 62°
2026-05-07 13:53 36.31904 -27.55325 37087 ft 507 kts 62°
2026-05-07 13:54 38.99112 -15.09987 37063 ft 476 kts 82°
2026-05-07 13:54 38.99529 -15.05722 37398 ft 488 kts 88°
2026-05-07 13:54 38.99738 -15.01309 37119 ft 498 kts 92°